This demonstration page uses our WeatherBlox Daily Observations layout. Learn more.

38.89511, -77.03637

Hourly Observations for December 21, 2016

Temp ( °F °C ) Dew Point ( °F °C ) Humidity (%) Winds ( mph kmh ) Pressure ( in mb ) Visibility ( mi km ) Precip ( " mm )
12:52 am 00:52 Mostly Cloudy 29 -1.7 22 -5.6 75 75 SW 3 6 30.21 1023 10 16.0934 0 0
1:52 am 01:52 Mostly Cloudy 30 -1.1 23 -5 75 75 S 3 6 30.2 1023 10 16.0934 0 0
2:52 am 02:52 Mostly Cloudy 29 -1.7 24 -4.4 82 82 S 3 6 30.19 1023 10 16.0934 0 0
3:52 am 03:52 Mostly Clear 30 -1.1 22 -5.6 72 72 Calm 30.19 1023 10 16.0934 0 0
4:52 am 04:52 Mostly Cloudy 27 -2.8 23 -5 85 85 SW 3 6 30.21 1023 10 16.0934 0 0
5:52 am 05:52 Mostly Cloudy 29 -1.7 25 -3.9 85 85 VRB 3 6 30.22 1023 10 16.0934 0 0
6:49 am 06:49 Mostly Cloudy 39 4 18 -8 42 42 NW 10 17 30.24 1024 10 16.0934 0 0
6:52 am 06:52 Mostly Cloudy 39 3.9 17 -8.3 41 41 WNW 8 13 30.24 1024 10 16.0934 0 0
7:52 am 07:52 Mostly Cloudy 40 4.4 16 -8.9 38 38 Calm 30.25 1024 10 16.0934 0 0
8:52 am 08:52 Mostly Cloudy 36 2.2 27 -2.8 70 70 S 5 7 30.25 1024 10 16.0934 0 0
9:52 am 09:52 Mostly Cloudy 41 5 19 -7.2 41 41 WSW 3 6 30.28 1025 10 16.0934 0 0
10:52 am 10:52 Cloudy 46 7.8 18 -7.8 32 32 W 6 9 30.28 1025 10 16.0934 0 0
11:52 am 11:52 Cloudy 44 6.7 25 -3.9 47 47 SSE 6 9 30.26 1025 10 16.0934 0 0
12:52 pm 12:52 Cloudy 44 6.7 26 -3.3 49 49 S 8 13 30.24 1024 10 16.0934 0 0
1:52 pm 13:52 Mostly Cloudy 46 7.8 25 -3.9 44 44 SSE 8 13 30.23 1024 10 16.0934 0 0
2:52 pm 14:52 Mostly Cloudy 48 8.9 21 -6.1 34 34 SSE 6 9 30.24 1024 10 16.0934 0 0
3:52 pm 15:52 Cloudy 47 8.3 21 -6.1 36 36 SSE 6 9 30.24 1024 10 16.0934 0 0
4:52 pm 16:52 Cloudy 46 7.8 19 -7.2 34 34 S 6 9 30.24 1024 10 16.0934 0 0
5:52 pm 17:52 Cloudy 45 7.2 20 -6.7 37 37 ESE 3 6 30.24 1024 10 16.0934 0 0
6:52 pm 18:52 Cloudy 40 4.4 28 -2.2 63 63 S 9 15 30.23 1024 10 16.0934 0 0
7:52 pm 19:52 Mostly Cloudy 41 5 21 -6.1 45 45 S 6 9 30.23 1024 10 16.0934 0 0
8:52 pm 20:52 Mostly Cloudy 37 2.8 27 -2.8 67 67 S 5 7 30.22 1023 10 16.0934 0 0
9:52 pm 21:52 Partly Cloudy 38 3.3 26 -3.3 62 62 SSW 3 6 30.21 1023 10 16.0934 0 0
10:52 pm 22:52 Partly Cloudy 36 2.2 28 -2.2 73 73 S 6 9 30.19 1022 10 16.0934 0 0
11:52 pm 23:52 Partly Cloudy 36 2.2 25 -3.9 64 64 SSW 7 11 30.16 1022 10 16.0934 0 0

Powered by AerisWeather